contact:dominique.lefevre@mio.osupytheas.fr, maurice.libes@osupytheas.fr, didier.mallarino@osupytheas.fr
Project:EMSO http://www.emso-fr.org/EMSO-France
Depth: 2436.0 m
Title:EMSO Ligure Ouest : Data MII capteur AQUADOPP
Date,Latitude,Longitude,X_East,Y_North,Z_Up,Amplitude_X,Amplitude_Y,Amplitude_Z,Batterie,SoundSpeed,Heading,Pitch,Roll,Pressure,TIS,Speed,Direction
, degrees North, degrees East, m.s-1, m.s-1,m.s-1, 1, 1, 1, Volt, m.s-1, degree, degree, degree, dbar, degree_C, m.s-1, degree
2024-04-06T00:04:03,42.805,6.029,-0.048,-0.003,-0.01,108.0,107.0,104.0,13.4,1505.2,1.1,-0.7,1.8,2471.708,13.29,0.048,266.4
2024-04-06T00:07:03,42.805,6.029,-0.066,-0.013,-0.003,108.0,107.0,104.0,13.4,1505.2,357.7,-0.8,1.8,2471.661,13.29,0.067,258.9
2024-04-06T00:10:03,42.805,6.029,-0.019,0.004,-0.01,108.0,108.0,105.0,13.4,1505.2,6.0,-0.7,1.8,2471.675,13.29,0.019,281.9
2024-04-06T00:13:03,42.805,6.029,-0.063,0.022,-0.028,108.0,108.0,104.0,13.4,1505.2,357.8,-0.8,1.8,2471.65,13.29,0.066,289.2
2024-04-06T00:16:03,42.805,6.029,-0.055,-0.024,-0.035,108.0,107.0,105.0,13.4,1505.2,354.6,-0.8,1.8,2471.635,13.29,0.06,246.4
2024-04-06T00:19:03,42.805,6.029,-0.069,-0.004,0.003,107.0,107.0,104.0,13.4,1505.2,358.8,-0.8,1.8,2471.636,13.29,0.069,266.7
2024-04-06T00:22:03,42.805,6.029,-0.07,0.014,-0.009,108.0,107.0,104.0,13.4,1505.2,357.7,-0.8,1.8,2471.624,13.29,0.071,281.3
2024-04-06T00:25:03,42.805,6.029,-0.044,0.023,-0.028,109.0,106.0,104.0,13.3,1505.2,4.8,-0.8,1.8,2471.626,13.29,0.049,297.6
2024-04-06T00:28:03,42.805,6.029,-0.045,0.019,-0.025,108.0,108.0,105.0,13.4,1505.2,353.0,-0.7,1.8,2471.651,13.29,0.048,292.9
2024-04-06T00:31:03,42.805,6.029,-0.043,0.022,-0.021,108.0,107.0,105.0,13.3,1505.2,5.0,-0.8,1.8,2471.622,13.29,0.048,297.1
2024-04-06T00:34:03,42.805,6.029,-0.047,0.006,-0.028,109.0,107.0,104.0,13.4,1505.2,1.0,-0.8,1.8,2471.634,13.29,0.047,277.3
2024-04-06T00:37:03,42.805,6.029,-0.054,-0.002,0.005,109.0,107.0,105.0,13.4,1505.2,359.4,-0.8,1.8,2471.614,13.29,0.054,267.9
2024-04-06T00:40:03,42.805,6.029,-0.046,0.02,-0.023,109.0,108.0,104.0,13.4,1505.2,6.1,-0.8,1.8,2471.637,13.29,0.05,293.5
2024-04-06T00:43:03,42.805,6.029,-0.056,0.01,-0.01,109.0,108.0,105.0,13.4,1505.2,355.6,-0.8,1.8,2471.625,13.29,0.056,280.1
2024-04-06T00:46:03,42.805,6.029,-0.064,0.027,-0.022,109.0,108.0,105.0,13.4,1505.2,0.0,-0.8,1.8,2471.607,13.29,0.069,292.9
2024-04-06T00:49:03,42.805,6.029,-0.051,0.027,-0.002,109.0,107.0,106.0,13.3,1505.2,358.3,-0.8,1.8,2471.609,13.29,0.057,297.9
2024-04-06T00:52:03,42.805,6.029,-0.056,0.025,-0.055,108.0,107.0,106.0,13.4,1505.2,357.3,-0.8,1.8,2471.622,13.29,0.061,294.1
2024-04-06T00:55:03,42.805,6.029,-0.044,0.012,-0.01,108.0,107.0,105.0,13.4,1505.2,2.4,-0.8,1.8,2471.653,13.29,0.045,285.3
2024-04-06T00:58:03,42.805,6.029,-0.027,0.005,-0.01,109.0,108.0,105.0,13.4,1505.2,358.8,-0.7,1.8,2471.645,13.29,0.027,280.5
2024-04-06T01:04:03,42.805,6.029,-0.069,0.016,-0.024,109.0,108.0,105.0,13.4,1505.2,352.1,-0.7,1.8,2471.652,13.29,0.07,283.1
2024-04-06T01:07:03,42.805,6.029,-0.054,0.008,-0.008,109.0,108.0,106.0,13.4,1505.2,0.0,-0.7,1.8,2471.653,13.29,0.054,278.4
2024-04-06T01:10:03,42.805,6.029,-0.05,0.018,-0.029,108.0,109.0,104.0,13.3,1505.2,4.8,-0.8,1.8,2471.64,13.29,0.053,289.8
2024-04-06T01:13:03,42.805,6.029,-0.044,0.009,0.005,108.0,106.0,106.0,13.4,1505.2,2.7,-0.8,1.8,2471.61,13.29,0.044,281.6
2024-04-06T01:16:03,42.805,6.029,-0.026,-0.006,-0.013,108.0,108.0,105.0,13.4,1505.2,352.5,-0.7,1.8,2471.645,13.29,0.026,257.0
2024-04-06T01:19:06,42.805,6.029,-0.046,0.021,-0.02,108.0,107.0,104.0,13.3,1505.2,0.5,-0.7,1.8,2471.606,13.29,0.05,294.5
2024-04-06T01:22:03,42.805,6.029,-0.04,0.02,-0.01,108.0,108.0,104.0,13.4,1505.2,3.9,-0.8,1.8,2471.675,13.29,0.044,296.6
2024-04-06T01:25:03,42.805,6.029,-0.059,-0.005,-0.009,108.0,108.0,106.0,13.4,1505.2,357.7,-0.8,1.8,2471.657,13.29,0.059,265.2
2024-04-06T01:28:03,42.805,6.029,-0.041,0.02,-0.014,108.0,109.0,104.0,13.4,1505.2,8.0,-0.8,1.8,2471.629,13.29,0.045,296.0
2024-04-06T01:31:03,42.805,6.029,-0.065,0.012,0.007,108.0,108.0,103.0,13.4,1505.2,357.3,-0.8,1.8,2471.633,13.29,0.066,280.5
2024-04-06T01:34:03,42.805,6.029,-0.05,0.024,-0.024,108.0,107.0,105.0,13.4,1505.2,5.1,-0.8,1.8,2471.661,13.29,0.055,295.6
2024-04-06T01:37:03,42.805,6.029,-0.053,0.009,-0.041,107.0,107.0,105.0,13.4,1505.2,355.3,-0.7,1.8,2471.626,13.29,0.053,279.6
2024-04-06T01:40:03,42.805,6.029,-0.052,0.016,-0.02,107.0,108.0,104.0,13.3,1505.2,0.0,-0.8,1.8,2471.681,13.29,0.054,287.1
2024-04-06T01:43:03,42.805,6.029,-0.044,0.017,-0.029,107.0,107.0,104.0,13.4,1505.2,350.9,-0.8,1.8,2471.681,13.29,0.047,291.1
2024-04-06T01:46:03,42.805,6.029,-0.048,-0.011,-0.029,108.0,108.0,104.0,13.4,1505.2,1.6,-0.7,1.8,2471.654,13.29,0.049,257.1
2024-04-06T01:49:03,42.805,6.029,-0.045,0.04,-0.003,109.0,107.0,104.0,13.4,1505.2,4.5,-0.8,1.8,2471.661,13.29,0.06,311.6
2024-04-06T01:52:03,42.805,6.029,-0.062,0.014,-0.005,108.0,108.0,105.0,13.4,1505.2,359.4,-0.8,1.8,2471.648,13.29,0.063,282.7
2024-04-06T01:55:03,42.805,6.029,-0.023,0.004,0.009,108.0,108.0,106.0,13.3,1505.2,3.8,-0.7,1.8,2471.653,13.29,0.023,279.9
2024-04-06T01:58:03,42.805,6.029,-0.049,0.018,-0.015,108.0,108.0,104.0,13.4,1505.2,4.2,-0.8,1.8,2471.683,13.29,0.052,290.2
2024-04-06T02:04:03,42.805,6.029,-0.052,0.009,0.012,109.0,109.0,104.0,13.3,1505.2,8.2,-0.8,1.8,2471.684,13.29,0.052,279.8
2024-04-06T02:07:03,42.805,6.029,-0.057,0.013,-0.033,107.0,108.0,104.0,13.4,1505.2,354.7,-0.8,1.8,2471.72,13.29,0.058,282.8
2024-04-06T02:10:03,42.805,6.029,-0.048,0.022,-0.011,109.0,106.0,104.0,13.4,1505.2,9.5,-0.7,1.8,2471.682,13.29,0.052,294.6
2024-04-06T02:13:03,42.805,6.029,-0.053,-0.002,-0.023,109.0,107.0,105.0,13.4,1505.2,5.4,-0.8,1.8,2471.692,13.29,0.053,267.8
2024-04-06T02:16:03,42.805,6.029,-0.047,0.015,-0.026,107.0,109.0,105.0,13.3,1505.2,2.3,-0.7,1.8,2471.703,13.29,0.049,287.7
2024-04-06T02:19:08,42.805,6.029,-0.058,0.005,0.002,108.0,107.0,104.0,13.4,1505.2,0.0,-0.8,1.8,2471.714,13.29,0.058,274.9
2024-04-06T02:22:03,42.805,6.029,-0.05,0.015,0.014,108.0,107.0,104.0,13.4,1505.2,7.7,-0.8,1.8,2471.716,13.29,0.052,286.7
2024-04-06T02:25:03,42.805,6.029,-0.052,0.043,-0.002,107.0,107.0,105.0,13.4,1505.2,4.4,-0.7,1.8,2471.701,13.29,0.067,309.6
2024-04-06T02:28:03,42.805,6.029,-0.044,0.017,-0.003,108.0,107.0,103.0,13.4,1505.2,356.4,-0.8,1.8,2471.698,13.29,0.047,291.1
2024-04-06T02:31:03,42.805,6.029,-0.07,0.009,-0.016,108.0,107.0,105.0,13.4,1505.2,4.6,-0.8,1.8,2471.709,13.29,0.07,277.3
2024-04-06T02:34:03,42.805,6.029,-0.05,0.01,-0.008,108.0,107.0,104.0,13.3,1505.2,2.3,-0.8,1.8,2471.695,13.29,0.05,281.3
2024-04-06T02:37:03,42.805,6.029,-0.047,0.04,-0.034,110.0,106.0,106.0,13.4,1505.2,6.7,-0.7,1.8,2471.695,13.29,0.061,310.4
2024-04-06T02:40:03,42.805,6.029,-0.052,0.004,-0.009,108.0,108.0,104.0,13.4,1505.2,354.1,-0.7,1.8,2471.722,13.29,0.052,274.4
2024-04-06T02:43:03,42.805,6.029,-0.047,0.009,-0.022,108.0,108.0,105.0,13.4,1505.2,5.8,-0.8,1.8,2471.722,13.29,0.047,280.8
2024-04-06T02:46:03,42.805,6.029,-0.039,0.002,-0.005,109.0,106.0,105.0,13.3,1505.2,8.7,-0.8,1.8,2471.7,13.29,0.039,272.9
2024-04-06T02:49:03,42.805,6.029,-0.051,0.01,-0.05,109.0,108.0,103.0,13.4,1505.2,351.4,-0.8,1.8,2471.748,13.29,0.051,281.1
2024-04-06T02:52:03,42.805,6.029,-0.055,0.024,-0.026,109.0,106.0,104.0,13.4,1505.2,355.1,-0.8,1.8,2471.724,13.29,0.06,293.6
2024-04-06T02:55:03,42.805,6.029,-0.036,0.007,-0.011,106.0,107.0,105.0,13.3,1505.2,357.1,-0.7,1.8,2471.733,13.29,0.036,281.0
2024-04-06T02:58:03,42.805,6.029,-0.051,0.018,0.006,108.0,107.0,104.0,13.4,1505.2,9.6,-0.7,1.8,2471.736,13.29,0.054,289.4
2024-04-06T03:04:03,42.805,6.029,-0.067,0.009,0.002,109.0,107.0,105.0,13.4,1505.2,358.3,-0.8,1.8,2471.779,13.29,0.067,277.7
2024-04-06T03:07:03,42.805,6.029,-0.053,0.001,-0.009,108.0,108.0,104.0,13.4,1505.2,356.5,-0.8,1.8,2471.747,13.29,0.053,271.1
2024-04-06T03:10:03,42.805,6.029,-0.061,0.024,-0.043,107.0,107.0,104.0,13.4,1505.2,8.6,-0.7,1.8,2471.758,13.29,0.065,291.5
2024-04-06T03:13:03,42.805,6.029,-0.064,0.016,-0.022,107.0,107.0,106.0,13.4,1505.2,7.0,-0.8,1.8,2471.796,13.29,0.065,284.0
2024-04-06T03:16:03,42.805,6.029,-0.073,0.0,-0.013,107.0,107.0,104.0,13.4,1505.2,351.4,-0.8,1.8,2471.787,13.29,0.072,270.0
2024-04-06T03:19:07,42.805,6.029,-0.055,0.008,0.002,109.0,107.0,105.0,13.4,1505.2,2.4,-0.8,1.8,2471.745,13.29,0.055,278.3
2024-04-06T03:22:03,42.805,6.029,-0.058,0.025,-0.022,109.0,107.0,103.0,13.4,1505.2,1.2,-0.8,1.8,2471.786,13.29,0.063,293.3
2024-04-06T03:25:03,42.805,6.029,-0.047,0.009,0.01,107.0,107.0,103.0,13.4,1505.2,8.4,-0.8,1.8,2471.787,13.29,0.047,280.8
2024-04-06T03:28:03,42.805,6.029,-0.063,0.002,-0.01,107.0,107.0,104.0,13.4,1505.2,6.0,-0.8,1.8,2471.782,13.29,0.063,271.8
2024-04-06T03:31:03,42.805,6.029,-0.051,-0.002,0.008,108.0,107.0,103.0,13.4,1505.2,352.8,-0.7,1.8,2471.801,13.29,0.051,267.8
2024-04-06T03:34:03,42.805,6.029,-0.053,0.001,-0.01,107.0,107.0,104.0,13.4,1505.2,3.0,-0.8,1.8,2471.779,13.29,0.053,271.1
2024-04-06T03:37:03,42.805,6.029,-0.056,0.008,-0.01,108.0,106.0,104.0,13.4,1505.2,6.0,-0.8,1.8,2471.83,13.29,0.056,278.1
2024-04-06T03:40:03,42.805,6.029,-0.053,0.013,-0.013,109.0,107.0,103.0,13.4,1505.2,7.8,-0.8,1.8,2471.781,13.29,0.054,283.8
2024-04-06T03:43:03,42.805,6.029,-0.062,0.013,0.036,107.0,107.0,104.0,13.4,1505.2,353.0,-0.7,1.8,2471.804,13.29,0.063,281.8
2024-04-06T03:46:03,42.805,6.029,-0.041,-0.007,0.007,107.0,107.0,105.0,13.4,1505.2,1.7,-0.7,1.8,2471.814,13.29,0.041,260.3
2024-04-06T03:49:03,42.805,6.029,-0.044,0.003,-0.003,108.0,107.0,104.0,13.3,1505.2,4.5,-0.7,1.8,2471.791,13.29,0.044,273.9
2024-04-06T03:52:03,42.805,6.029,-0.067,0.008,0.015,108.0,106.0,104.0,13.4,1505.2,1.2,-0.7,1.8,2471.774,13.29,0.067,276.8
2024-04-06T03:55:03,42.805,6.029,-0.061,0.005,-0.01,108.0,108.0,104.0,13.4,1505.2,358.8,-0.7,1.8,2471.828,13.29,0.061,274.7
2024-04-06T03:58:03,42.805,6.029,-0.048,0.009,-0.021,107.0,107.0,104.0,13.3,1505.2,4.9,-0.8,1.8,2471.821,13.29,0.048,280.6
2024-04-06T04:04:03,42.805,6.029,-0.067,0.001,-0.031,108.0,107.0,104.0,13.4,1505.2,0.0,-0.8,1.8,2471.824,13.29,0.067,270.9
2024-04-06T04:07:03,42.805,6.029,-0.043,0.017,0.006,108.0,107.0,103.0,13.4,1505.2,357.5,-0.8,1.8,2471.822,13.29,0.046,291.6
2024-04-06T04:10:03,42.805,6.029,-0.041,0.006,0.015,107.0,107.0,104.0,13.3,1505.2,6.6,-0.7,1.8,2471.817,13.29,0.041,278.3
2024-04-06T04:13:03,42.805,6.029,-0.04,0.004,-0.017,108.0,105.0,104.0,13.4,1505.2,4.8,-0.8,1.8,2471.854,13.29,0.04,275.7
2024-04-06T04:16:03,42.805,6.029,-0.056,-0.016,-0.032,108.0,107.0,104.0,13.4,1505.2,353.3,-0.7,1.8,2471.811,13.29,0.058,254.1
2024-04-06T04:19:08,42.805,6.029,-0.042,0.013,-0.009,107.0,107.0,103.0,13.3,1505.2,3.4,-0.8,1.8,2471.816,13.29,0.043,287.2
2024-04-06T04:22:03,42.805,6.029,-0.024,0.021,0.019,108.0,106.0,103.0,13.3,1505.2,357.7,-0.8,1.8,2471.836,13.29,0.031,311.2
2024-04-06T04:25:03,42.805,6.029,-0.039,0.003,-0.021,108.0,107.0,104.0,13.4,1505.2,5.4,-0.8,1.8,2471.872,13.29,0.039,274.4
2024-04-06T04:28:03,42.805,6.029,-0.069,0.019,-0.021,107.0,107.0,104.0,13.4,1505.2,6.0,-0.8,1.8,2471.84,13.29,0.071,285.4
2024-04-06T04:31:03,42.805,6.029,-0.036,0.016,0.002,107.0,107.0,104.0,13.4,1505.2,5.7,-0.8,1.8,2471.885,13.29,0.039,294.0
2024-04-06T04:34:03,42.805,6.029,-0.041,0.002,0.004,109.0,107.0,103.0,13.4,1505.2,2.8,-0.8,1.8,2471.825,13.29,0.041,272.8
2024-04-06T04:37:03,42.805,6.029,-0.049,0.013,-0.047,109.0,107.0,103.0,13.3,1505.2,3.8,-0.7,1.8,2471.861,13.29,0.05,284.9
2024-04-06T04:40:03,42.805,6.029,-0.032,0.006,-0.003,108.0,108.0,104.0,13.3,1505.2,7.5,-0.8,1.7,2471.821,13.29,0.032,280.6
2024-04-06T04:43:03,42.805,6.029,-0.058,0.003,0.01,107.0,107.0,104.0,13.4,1505.2,8.9,-0.8,1.8,2471.841,13.29,0.058,273.0
2024-04-06T04:46:03,42.805,6.029,-0.049,0.015,-0.009,108.0,107.0,102.0,13.4,1505.2,357.7,-0.8,1.8,2471.874,13.29,0.051,287.0
2024-04-06T04:49:03,42.805,6.029,-0.083,0.004,-0.035,107.0,107.0,103.0,13.4,1505.2,1.0,-0.7,1.8,2471.816,13.29,0.083,272.8
2024-04-06T04:52:03,42.805,6.029,-0.063,-0.009,-0.046,108.0,107.0,104.0,13.4,1505.2,355.8,-0.7,1.8,2471.829,13.29,0.063,261.9
2024-04-06T04:55:03,42.805,6.029,-0.058,-0.009,0.001,108.0,106.0,104.0,13.4,1505.2,356.5,-0.8,1.8,2471.838,13.29,0.058,261.2
2024-04-06T04:58:03,42.805,6.029,-0.062,0.002,-0.02,108.0,108.0,105.0,13.4,1505.2,6.9,-0.7,1.8,2471.865,13.29,0.062,271.8
2024-04-06T05:04:03,42.805,6.029,-0.049,0.021,0.004,107.0,106.0,103.0,13.3,1505.2,8.1,-0.7,1.8,2471.869,13.29,0.053,293.2
2024-04-06T05:07:03,42.805,6.029,-0.053,0.013,0.004,109.0,108.0,105.0,13.4,1505.2,351.2,-0.8,1.8,2471.822,13.29,0.054,283.8
2024-04-06T05:10:03,42.805,6.029,-0.062,-0.005,0.014,108.0,107.0,104.0,13.4,1505.2,357.1,-0.7,1.8,2471.827,13.29,0.062,265.4
2024-04-06T05:13:03,42.805,6.029,-0.056,0.021,-0.017,107.0,106.0,105.0,13.4,1505.2,357.8,-0.8,1.8,2471.841,13.29,0.059,290.6
2024-04-06T05:16:03,42.805,6.029,-0.046,0.003,-0.003,109.0,107.0,103.0,13.3,1505.2,358.1,-0.8,1.8,2471.859,13.29,0.046,273.7
2024-04-06T05:19:03,42.805,6.029,-0.057,0.011,-0.012,109.0,106.0,103.0,13.4,1505.2,0.5,-0.7,1.8,2471.875,13.29,0.058,280.9
2024-04-06T05:22:03,42.805,6.029,-0.042,-0.003,-0.018,107.0,108.0,105.0,13.4,1505.2,356.5,-0.8,1.8,2471.851,13.29,0.042,265.9
2024-04-06T05:25:03,42.805,6.029,-0.051,-0.004,-0.036,109.0,108.0,105.0,13.4,1505.2,359.4,-0.8,1.8,2471.821,13.29,0.051,265.5
2024-04-06T05:28:03,42.805,6.029,-0.064,0.027,-0.035,108.0,108.0,104.0,13.3,1505.2,2.4,-0.8,1.8,2471.841,13.29,0.069,292.9
2024-04-06T05:31:03,42.805,6.029,-0.065,0.024,0.017,108.0,107.0,104.0,13.3,1505.2,8.6,-0.8,1.8,2471.798,13.29,0.069,290.3
2024-04-06T05:34:03,42.805,6.029,-0.038,0.008,-0.009,108.0,107.0,104.0,13.4,1505.2,1.6,-0.8,1.8,2471.866,13.29,0.038,281.9
2024-04-06T05:37:03,42.805,6.029,-0.054,0.04,-0.036,108.0,107.0,104.0,13.4,1505.2,4.2,-0.7,1.8,2471.834,13.29,0.067,306.5
2024-04-06T05:40:03,42.805,6.029,-0.049,0.007,-0.012,109.0,107.0,104.0,13.4,1505.2,7.1,-0.8,1.8,2471.836,13.29,0.049,278.1
2024-04-06T05:43:03,42.805,6.029,-0.056,0.001,0.0,108.0,107.0,105.0,13.4,1505.2,352.2,-0.8,1.8,2471.818,13.29,0.056,271.0
2024-04-06T05:46:03,42.805,6.029,-0.072,-0.008,0.006,108.0,107.0,104.0,13.3,1505.2,351.8,-0.7,1.8,2471.87,13.29,0.072,263.7
2024-04-06T05:49:03,42.805,6.029,-0.048,0.011,0.001,109.0,107.0,104.0,13.4,1505.2,355.8,-0.8,1.8,2471.845,13.29,0.049,282.9
2024-04-06T05:52:03,42.805,6.029,-0.044,0.007,-0.027,108.0,108.0,104.0,13.4,1505.2,358.2,-0.7,1.8,2471.846,13.29,0.044,279.0
2024-04-06T05:55:03,42.805,6.029,-0.058,0.02,-0.013,107.0,109.0,104.0,13.4,1505.2,1.0,-0.7,1.8,2471.824,13.29,0.061,289.0
2024-04-06T05:58:03,42.805,6.029,-0.06,0.015,0.003,108.0,108.0,104.0,13.4,1505.2,353.4,-0.7,1.8,2471.86,13.29,0.061,284.0
2024-04-06T06:04:03,42.805,6.029,-0.054,0.021,-0.012,109.0,107.0,104.0,13.3,1505.2,4.8,-0.8,1.8,2471.852,13.29,0.057,291.2
2024-04-06T06:07:03,42.805,6.029,-0.037,0.012,-0.032,109.0,108.0,105.0,13.3,1505.2,4.2,-0.8,1.8,2471.858,13.29,0.038,288.0
2024-04-06T06:10:03,42.805,6.029,-0.053,0.029,-0.004,109.0,108.0,103.0,13.3,1505.2,358.3,-0.8,1.8,2471.865,13.29,0.06,298.7
2024-04-06T06:13:03,42.805,6.029,-0.07,0.014,0.014,107.0,107.0,104.0,13.4,1505.2,2.6,-0.8,1.8,2471.86,13.29,0.071,281.3
2024-04-06T06:16:03,42.805,6.029,-0.067,0.017,0.003,108.0,107.0,104.0,13.4,1505.2,4.6,-0.8,1.8,2471.855,13.29,0.069,284.2
2024-04-06T06:19:03,42.805,6.029,-0.058,0.028,-0.001,109.0,107.0,104.0,13.3,1505.2,7.7,-0.8,1.8,2471.827,13.29,0.064,295.8
2024-04-06T06:22:03,42.805,6.029,-0.049,0.017,-0.027,108.0,108.0,104.0,13.3,1505.2,356.7,-0.8,1.8,2471.85,13.29,0.051,289.1
2024-04-06T06:25:03,42.805,6.029,-0.063,0.04,-0.023,108.0,107.0,104.0,13.4,1505.2,3.6,-0.8,1.8,2471.838,13.29,0.074,302.4
2024-04-06T06:28:03,42.805,6.029,-0.057,0.018,-0.009,108.0,108.0,105.0,13.3,1505.2,6.4,-0.7,1.8,2471.826,13.29,0.059,287.5
2024-04-06T06:31:03,42.805,6.029,-0.063,0.002,-0.027,108.0,107.0,105.0,13.4,1505.2,2.1,-0.7,1.8,2471.815,13.29,0.063,271.8
2024-04-06T06:34:03,42.805,6.029,-0.063,0.019,-0.021,109.0,108.0,104.0,13.3,1505.2,355.2,-0.8,1.8,2471.809,13.29,0.065,286.8
2024-04-06T06:37:03,42.805,6.029,-0.041,0.026,-0.003,109.0,108.0,105.0,13.4,1505.2,359.4,-0.8,1.8,2471.838,13.29,0.048,302.4
2024-04-06T06:40:03,42.805,6.029,-0.054,0.016,-0.007,110.0,108.0,104.0,13.4,1505.2,8.9,-0.8,1.8,2471.832,13.29,0.056,286.5
2024-04-06T06:43:03,42.805,6.029,-0.032,0.016,-0.026,108.0,108.0,104.0,13.4,1505.2,351.8,-0.7,1.8,2471.816,13.29,0.035,296.6
2024-04-06T06:46:03,42.805,6.029,-0.039,0.013,-0.004,109.0,108.0,104.0,13.3,1505.2,0.0,-0.8,1.8,2471.832,13.29,0.041,288.4
2024-04-06T06:49:03,42.805,6.029,-0.055,0.0,-0.02,110.0,108.0,104.0,13.3,1505.2,356.6,-0.7,1.8,2471.83,13.29,0.055,270.0
2024-04-06T06:52:03,42.805,6.029,-0.054,0.017,-0.05,108.0,107.0,105.0,13.3,1505.2,353.9,-0.8,1.8,2471.841,13.29,0.056,287.5
2024-04-06T06:55:03,42.805,6.029,-0.046,0.015,-0.028,109.0,108.0,104.0,13.4,1505.2,355.2,-0.8,1.8,2471.807,13.29,0.048,288.1
2024-04-06T06:58:03,42.805,6.029,-0.046,0.022,0.016,109.0,107.0,105.0,13.4,1505.2,1.8,-0.7,1.8,2471.828,13.29,0.05,295.6
2024-04-06T07:04:03,42.805,6.029,-0.052,0.028,-0.002,109.0,107.0,105.0,13.4,1505.2,9.0,-0.7,1.8,2471.853,13.29,0.059,298.3
2024-04-06T07:07:03,42.805,6.029,-0.066,0.006,-0.021,108.0,107.0,104.0,13.3,1505.2,0.5,-0.7,1.8,2471.818,13.29,0.066,275.2
2024-04-06T07:10:03,42.805,6.029,-0.054,-0.018,-0.049,108.0,108.0,105.0,13.4,1505.2,353.6,-0.8,1.8,2471.82,13.29,0.056,251.6
2024-04-06T07:13:03,42.805,6.029,-0.045,0.021,-0.012,108.0,107.0,104.0,13.3,1505.2,357.6,-0.8,1.8,2471.86,13.29,0.049,295.0
2024-04-06T07:16:03,42.805,6.029,-0.023,0.027,-0.028,109.0,107.0,105.0,13.4,1505.2,8.7,-0.7,1.8,2471.833,13.29,0.035,319.6
2024-04-06T07:19:03,42.805,6.029,-0.034,0.04,-0.037,109.0,108.0,104.0,13.3,1505.2,6.7,-0.8,1.8,2471.843,13.29,0.052,319.6
2024-04-06T07:22:03,42.805,6.029,-0.043,-0.002,-0.036,108.0,108.0,104.0,13.4,1505.2,352.0,-0.8,1.9,2471.826,13.29,0.043,267.3
2024-04-06T07:25:03,42.805,6.029,-0.057,0.016,-0.008,108.0,106.0,105.0,13.3,1505.2,357.7,-0.8,1.8,2471.816,13.29,0.059,285.7
2024-04-06T07:28:03,42.805,6.029,-0.066,-0.003,-0.009,108.0,107.0,104.0,13.3,1505.2,4.9,-0.8,1.8,2471.782,13.29,0.066,267.4
2024-04-06T07:31:03,42.805,6.029,-0.045,0.031,0.018,109.0,107.0,104.0,13.3,1505.2,9.0,-0.7,1.8,2471.772,13.29,0.054,304.6
2024-04-06T07:34:03,42.805,6.029,-0.058,0.033,-0.007,108.0,107.0,104.0,13.3,1505.2,354.5,-0.8,1.8,2471.79,13.29,0.066,299.6
2024-04-06T07:37:03,42.805,6.029,-0.037,-0.001,-0.027,108.0,109.0,105.0,13.3,1505.2,1.7,-0.7,1.8,2471.805,13.29,0.037,268.5
2024-04-06T07:40:03,42.805,6.029,-0.046,0.01,-0.003,108.0,108.0,104.0,13.3,1505.2,0.5,-0.8,1.8,2471.776,13.29,0.047,282.3
2024-04-06T07:43:03,42.805,6.029,-0.042,0.036,-0.012,108.0,107.0,104.0,13.4,1505.2,4.9,-0.8,1.8,2471.804,13.29,0.055,310.6
2024-04-06T07:46:03,42.805,6.029,-0.057,0.026,-0.004,109.0,107.0,104.0,13.4,1505.2,8.6,-0.7,1.8,2471.786,13.29,0.062,294.5
2024-04-06T07:49:03,42.805,6.029,-0.046,0.022,-0.026,109.0,107.0,105.0,13.4,1505.2,354.0,-0.7,1.8,2471.784,13.29,0.05,295.6
2024-04-06T07:52:03,42.805,6.029,-0.032,0.018,0.0,109.0,108.0,104.0,13.4,1505.2,2.4,-0.8,1.8,2471.797,13.29,0.036,299.4
2024-04-06T07:55:03,42.805,6.029,-0.036,0.029,-0.021,108.0,107.0,104.0,13.3,1505.2,6.0,-0.7,1.8,2471.792,13.29,0.046,308.9
2024-04-06T07:58:03,42.805,6.029,-0.058,0.008,-0.017,109.0,107.0,105.0,13.3,1505.2,353.0,-0.8,1.8,2471.785,13.29,0.058,277.8
2024-04-06T08:04:03,42.805,6.029,-0.026,0.027,-0.006,109.0,108.0,105.0,13.4,1505.2,357.8,-0.8,1.8,2471.818,13.29,0.037,316.1
2024-04-06T08:07:03,42.805,6.029,-0.012,0.029,-0.016,109.0,108.0,105.0,13.3,1505.2,3.3,-0.8,1.8,2471.806,13.29,0.031,337.5
2024-04-06T08:10:03,42.805,6.029,-0.048,0.027,-0.023,109.0,108.0,104.0,13.4,1505.2,3.2,-0.7,1.8,2471.821,13.29,0.055,299.4
2024-04-06T08:13:03,42.805,6.029,-0.04,0.022,0.004,108.0,108.0,104.0,13.4,1505.2,7.0,-0.7,1.8,2471.802,13.29,0.045,298.8
2024-04-06T08:16:03,42.805,6.029,-0.069,0.021,0.0,108.0,108.0,104.0,13.3,1505.2,5.3,-0.8,1.8,2471.79,13.29,0.072,286.9
2024-04-06T08:19:03,42.805,6.029,-0.069,0.022,-0.019,109.0,108.0,104.0,13.4,1505.2,1.0,-0.7,1.8,2471.78,13.29,0.072,287.7
2024-04-06T08:22:03,42.805,6.029,-0.059,0.014,-0.025,108.0,108.0,104.0,13.4,1505.2,353.0,-0.8,1.8,2471.778,13.29,0.06,283.3
2024-04-06T08:25:03,42.805,6.029,-0.054,0.019,-0.018,109.0,107.0,105.0,13.4,1505.2,0.6,-0.7,1.8,2471.771,13.29,0.057,289.4
2024-04-06T08:28:03,42.805,6.029,-0.062,0.003,-0.025,109.0,106.0,104.0,13.4,1505.2,357.7,-0.8,1.8,2471.746,13.29,0.062,272.8
2024-04-06T08:31:03,42.805,6.029,-0.053,0.041,-0.017,107.0,107.0,103.0,13.3,1505.2,4.3,-0.8,1.8,2471.784,13.29,0.067,307.7
2024-04-06T08:34:03,42.805,6.029,-0.036,0.037,-0.004,109.0,107.0,104.0,13.4,1505.2,8.5,-0.7,1.8,2471.755,13.29,0.051,315.8
2024-04-06T08:37:03,42.805,6.029,-0.036,0.023,-0.024,107.0,109.0,104.0,13.3,1505.2,8.0,-0.8,1.8,2471.784,13.29,0.042,302.6
2024-04-06T08:40:03,42.805,6.029,-0.049,0.008,-0.033,108.0,107.0,104.0,13.3,1505.2,7.2,-0.8,1.8,2471.74,13.29,0.049,279.3
2024-04-06T08:43:03,42.805,6.029,-0.067,0.042,-0.045,109.0,108.0,105.0,13.4,1505.2,4.8,-0.7,1.8,2471.742,13.29,0.079,302.1
2024-04-06T08:46:03,42.805,6.029,-0.05,-0.004,-0.014,107.0,107.0,104.0,13.4,1505.2,355.6,-0.7,1.8,2471.739,13.29,0.05,265.4
2024-04-06T08:49:03,42.805,6.029,-0.063,0.004,-0.017,110.0,107.0,104.0,13.4,1505.2,358.2,-0.7,1.8,2471.768,13.29,0.063,273.6
2024-04-06T08:52:03,42.805,6.029,-0.045,0.009,-0.017,108.0,109.0,104.0,13.4,1505.2,356.5,-0.8,1.8,2471.727,13.29,0.045,281.3
2024-04-06T08:55:03,42.805,6.029,-0.042,0.015,0.021,108.0,107.0,104.0,13.4,1505.2,357.8,-0.7,1.8,2471.735,13.29,0.044,289.6
2024-04-06T08:58:03,42.805,6.029,-0.047,0.018,-0.011,108.0,107.0,104.0,13.4,1505.2,2.7,-0.8,1.7,2471.753,13.29,0.05,291.0
2024-04-06T09:04:03,42.805,6.029,-0.047,0.014,-0.003,109.0,106.0,104.0,13.4,1505.2,7.4,-0.8,1.8,2471.76,13.29,0.049,286.6
2024-04-06T09:07:03,42.805,6.029,-0.055,0.015,0.014,108.0,107.0,105.0,13.3,1505.2,350.8,-0.7,1.8,2471.774,13.29,0.057,285.3
2024-04-06T09:10:03,42.805,6.029,-0.056,-0.004,-0.016,109.0,108.0,104.0,13.3,1505.2,357.1,-0.7,1.8,2471.763,13.29,0.056,265.9
2024-04-06T09:13:03,42.805,6.029,-0.04,0.042,-0.022,109.0,108.0,105.0,13.4,1505.2,8.0,-0.7,1.8,2471.805,13.29,0.057,316.4
2024-04-06T09:16:03,42.805,6.029,-0.039,0.013,0.005,109.0,107.0,104.0,13.4,1505.2,354.6,-0.8,1.8,2471.69,13.29,0.041,288.4
2024-04-06T09:19:03,42.805,6.029,-0.05,0.025,0.001,109.0,108.0,105.0,13.3,1505.2,5.3,-0.8,1.8,2471.735,13.29,0.055,296.6
2024-04-06T09:22:03,42.805,6.029,-0.056,0.01,-0.033,108.0,108.0,104.0,13.4,1505.2,355.9,-0.8,1.8,2471.729,13.29,0.056,280.1
2024-04-06T09:25:03,42.805,6.029,-0.049,0.01,-0.016,109.0,107.0,104.0,13.4,1505.2,8.9,-0.7,1.8,2471.688,13.29,0.05,281.5
2024-04-06T09:28:03,42.805,6.029,-0.041,0.012,-0.04,109.0,106.0,104.0,13.3,1505.2,355.6,-0.8,1.8,2471.712,13.29,0.042,286.3
2024-04-06T09:31:03,42.805,6.029,-0.037,0.026,-0.045,108.0,107.0,105.0,13.4,1505.2,0.6,-0.8,1.8,2471.727,13.29,0.045,305.1
2024-04-06T09:34:03,42.805,6.029,-0.041,0.004,-0.008,107.0,107.0,104.0,13.4,1505.2,357.6,-0.8,1.8,2471.704,13.29,0.041,275.6
2024-04-06T09:37:03,42.805,6.029,-0.04,0.021,-0.02,108.0,108.0,104.0,13.4,1505.2,358.2,-0.7,1.8,2471.69,13.29,0.045,297.7
2024-04-06T09:40:03,42.805,6.029,-0.049,-0.002,-0.015,109.0,108.0,105.0,13.3,1505.2,7.0,-0.8,1.8,2471.698,13.29,0.049,267.7
2024-04-06T09:43:03,42.805,6.029,-0.044,0.015,0.012,109.0,108.0,104.0,13.3,1505.2,9.0,-0.7,1.8,2471.706,13.29,0.046,288.8
2024-04-06T09:46:03,42.805,6.029,-0.041,0.012,-0.004,109.0,108.0,104.0,13.4,1505.2,352.7,-0.8,1.8,2471.724,13.29,0.042,286.3
2024-04-06T09:49:03,42.805,6.029,-0.047,-0.002,-0.007,109.0,108.0,105.0,13.4,1505.2,358.1,-0.8,1.8,2471.671,13.29,0.047,267.6
2024-04-06T09:52:03,42.805,6.029,-0.051,-0.009,-0.038,109.0,107.0,105.0,13.3,1505.2,3.3,-0.8,1.8,2471.688,13.29,0.051,260.0
2024-04-06T09:55:03,42.805,6.029,-0.036,0.018,0.005,109.0,109.0,105.0,13.4,1505.2,358.2,-0.7,1.8,2471.669,13.29,0.04,296.6
2024-04-06T09:58:03,42.805,6.029,-0.039,0.011,-0.02,109.0,108.0,105.0,13.3,1505.2,8.4,-0.8,1.8,2471.697,13.29,0.04,285.7